Weather History for Mattoon, IL

Change the Weather History Date:

Thursday, April 18, 2013

  Actual Average Record
Temperature  
Mean Temperature 57 °F 54 °F  
Max Temperature 72 °F 65 °F 85 °F (1977)
Min Temperature 41 °F 44 °F 26 °F (1953)
Degree Days  
Heating Degree Days 8 11  
Month to date heating degree days 227 254  
Since 1 July heating degree days 5086 5157  
Cooling Degree Days 0 0  
Month to date cooling degree days 2 0  
Year to date cooling degree days 2 1  
Growing Degree Days 8 (Base 50)    
Moisture  
Dew Point 58 °F    
Average Humidity 90    
Maximum Humidity 100    
Minimum Humidity 79    
Precipitation  
Precipitation 2.65 in 0.11 in 2.65 in (2013)
Month to date precipitation 5.80 1.80  
Year to date precipitation 13.19 8.35  
Sea Level Pressure  
Sea Level Pressure 29.66 in    
Wind  
Wind Speed 13 mph (SSW)    
Max Wind Speed 28 mph    
Max Gust Speed 35 mph    
Visibility 6 miles    
Events Fog , Rain , Thunderstorm    
T = Trace of Precipitation, MM = Missing Value Source: NWS Daily Summary

Daily Weather History Graph

Daily Weather History Graph

Search for Another Location

Airport:

Trip Planner

Search our weather history database for the weather conditions in past years. The results will help you decide how hot, cold, wet, or windy it might be!

Date:

Astronomy

Apr. 18, 2013 Rise Set
Actual Time 6:11 AM CDT 7:34 PM CDT
Civil Twilight 5:43 AM CDT 8:02 PM CDT
Nautical Twilight 5:09 AM CDT 8:35 PM CDT
Astronomical Twilight 4:34 AM CDT 9:11 PM CDT
Moon 12:22 PM CDT (4/18) 1:48 AM CDT (4/18)
Length of Visible Light 14h 19m
Length of Day
13h 22m
First Quarter, 52% of the Moon is Illuminated
Apr 18
First Quarter
Apr 25
Full
May 2
Last Quarter
May 9
New
May 17
First Quarter

Hourly Weather History & Observations

Time (CDT) Temp. Windchill Dew Point Humidity Pressure Visibility Wind Dir Wind Speed Gust Speed Precip Events Conditions
12:53 AM 70.0 °F - 64.0 °F 81% 29.72 in 10.0 mi South 15.0 mph 25.3 mph N/A   Clear
1:53 AM 72.0 °F - 64.0 °F 76% 29.69 in 10.0 mi South 17.3 mph 27.6 mph N/A   Partly Cloudy
2:53 AM 71.1 °F - 64.0 °F 78% 29.67 in 10.0 mi South 16.1 mph 29.9 mph N/A   Clear
3:53 AM 70.0 °F - 64.0 °F 81% 29.65 in 10.0 mi South 18.4 mph 31.1 mph N/A   Clear
4:53 AM 71.1 °F - 64.0 °F 78% 29.64 in 10.0 mi South 17.3 mph 23.0 mph N/A   Clear
5:53 AM 71.1 °F - 64.9 °F 81% 29.63 in 10.0 mi South 16.1 mph 25.3 mph 0.00 in   Partly Cloudy
6:53 AM 71.1 °F - 64.9 °F 81% 29.61 in 10.0 mi South 20.7 mph 33.4 mph N/A   Clear
7:39 AM 71.6 °F - 64.4 °F 78% 29.65 in 10.0 mi South 16.1 mph 25.3 mph N/A   Mostly Cloudy
7:53 AM 71.1 °F - 64.9 °F 81% 29.63 in 10.0 mi South 16.1 mph 27.6 mph N/A   Overcast
8:07 AM 71.6 °F - 64.4 °F 78% 29.65 in 10.0 mi South 18.4 mph 29.9 mph N/A   Overcast
8:53 AM 69.1 °F - 63.0 °F 81% 29.68 in 10.0 mi West 18.4 mph 25.3 mph 0.00 in Thunderstorm Overcast
9:03 AM 64.4 °F - 60.8 °F 88% 29.72 in 9.0 mi West 12.7 mph 24.2 mph 0.01 in Rain Light Rain
9:07 AM 62.6 °F - 60.8 °F 94% 29.69 in 2.0 mi West 16.1 mph 26.5 mph 0.11 in Rain Heavy Rain
9:11 AM 62.6 °F - 60.8 °F 94% 29.71 in 1.0 mi WSW 12.7 mph 26.5 mph 0.17 in Rain Heavy Rain
9:44 AM 62.6 °F - 60.8 °F 94% 29.71 in 2.0 mi South 5.8 mph - 0.46 in Rain , Thunderstorm Rain
9:53 AM 62.1 °F - 61.0 °F 96% 29.70 in 2.0 mi South 3.5 mph - 0.51 in Rain , Thunderstorm Heavy Rain
10:02 AM 62.6 °F - 60.8 °F 94% 29.71 in 6.0 mi South 5.8 mph - 0.01 in Rain , Thunderstorm Light Rain
10:15 AM 62.6 °F - 60.8 °F 94% 29.71 in 5.0 mi SSW 8.1 mph - 0.02 in Rain Light Rain
10:27 AM 60.8 °F - 60.8 °F 100% 29.72 in 2.5 mi SSW 6.9 mph - 0.07 in Rain , Thunderstorm Rain
10:53 AM 61.0 °F - 61.0 °F 100% 29.70 in 3.0 mi South 5.8 mph - 0.20 in Rain Rain
11:12 AM 60.8 °F - 60.8 °F 100% 29.71 in 6.0 mi South 5.8 mph - 0.03 in Rain , Thunderstorm Rain
11:24 AM 60.8 °F - 60.8 °F 100% 29.72 in 2.0 mi South 8.1 mph - 0.12 in Rain , Thunderstorm Thunderstorms and Rain
11:38 AM 60.8 °F - 60.8 °F 100% 29.71 in 1.8 mi SSE 9.2 mph - 0.22 in Rain , Thunderstorm Heavy Rain
11:53 AM 61.0 °F - 61.0 °F 100% 29.70 in 2.5 mi SSE 9.2 mph - 0.28 in Rain , Thunderstorm Thunderstorms and Rain
12:09 PM 60.8 °F - 60.8 °F 100% 29.70 in 2.5 mi SSE 5.8 mph - 0.04 in Rain Rain
12:22 PM 60.8 °F - 60.8 °F 100% 29.69 in 3.0 mi Calm Calm - 0.07 in Rain Rain
12:36 PM 60.8 °F - 60.8 °F 100% 29.67 in 10.0 mi East 4.6 mph - 0.07 in Rain Light Rain
12:53 PM 61.0 °F - 61.0 °F 100% 29.66 in 10.0 mi Calm Calm - 0.07 in   Overcast
1:00 PM 60.8 °F - 60.8 °F 100% 29.66 in 10.0 mi Calm Calm - N/A   Overcast
1:16 PM 60.8 °F - 60.8 °F 100% 29.65 in 10.0 mi ESE 6.9 mph - 0.00 in Rain Light Rain
1:37 PM 60.8 °F - 60.8 °F 100% 29.67 in 4.0 mi WNW 10.4 mph - 0.03 in Rain , Thunderstorm Light Rain
1:44 PM 60.8 °F - 60.8 °F 100% 29.67 in 2.5 mi Calm Calm - 0.06 in Rain , Thunderstorm Rain
1:48 PM 60.8 °F - 60.8 °F 100% 29.66 in 1.5 mi Calm Calm - 0.08 in Rain Heavy Rain
1:53 PM 61.0 °F - 61.0 °F 100% 29.67 in 1.8 mi Calm Calm - 0.09 in Rain , Thunderstorm Rain
2:03 PM 60.8 °F - 60.8 °F 100% 29.69 in 0.5 mi Variable 3.5 mph - 0.25 in Fog , Rain , Thunderstorm Heavy Thunderstorms and Rain
2:13 PM 60.8 °F - 60.8 °F 100% 29.67 in 1.0 mi SSW 8.1 mph - 0.35 in Rain , Thunderstorm Heavy Thunderstorms and Rain
2:19 PM 62.6 °F - 60.8 °F 94% 29.66 in 3.0 mi South 5.8 mph - 0.36 in Rain , Thunderstorm Thunderstorms and Rain
2:41 PM 62.6 °F - 60.8 °F 94% 29.66 in 8.0 mi SSW 5.8 mph - 0.38 in Rain Light Rain
2:53 PM 62.1 °F - 61.0 °F 96% 29.62 in 5.0 mi South 4.6 mph - 0.40 in Rain Rain
3:24 PM 62.6 °F - 62.6 °F 100% 29.65 in 4.0 mi South 8.1 mph - 0.06 in Rain Rain
3:43 PM 62.6 °F - 60.8 °F 94% 29.64 in 5.0 mi South 9.2 mph - 0.11 in Rain , Thunderstorm Thunderstorms and Rain
3:53 PM 62.1 °F - 62.1 °F 100% 29.62 in 4.0 mi South 5.8 mph - 0.13 in Rain Rain
4:20 PM 62.6 °F - 62.6 °F 100% 29.62 in 10.0 mi South 8.1 mph - 0.04 in Rain Light Rain
4:53 PM 63.0 °F - 62.1 °F 97% 29.61 in 5.0 mi South 12.7 mph - 0.09 in Rain Rain
5:21 PM 62.6 °F - 62.6 °F 100% 29.58 in 8.0 mi South 12.7 mph - 0.04 in Rain Light Rain
5:43 PM 62.6 °F - 62.6 °F 100% 29.58 in 6.0 mi South 9.2 mph - 0.07 in Rain Light Rain
5:53 PM 62.1 °F - 62.1 °F 100% 29.57 in 6.0 mi South 12.7 mph - 0.09 in Rain Rain
6:53 PM 63.0 °F - 62.1 °F 97% 29.57 in 4.0 mi South 13.8 mph 20.7 mph 0.13 in Rain Rain
7:12 PM 53.6 °F - 53.6 °F 100% 29.61 in 4.0 mi West 11.5 mph 29.9 mph 0.07 in Rain Rain
7:34 PM 51.8 °F - 50.0 °F 94% 29.65 in 5.0 mi West 23.0 mph 33.4 mph 0.14 in Rain Rain
7:53 PM 50.0 °F - 48.9 °F 96% 29.65 in 9.0 mi West 19.6 mph 29.9 mph 0.18 in Rain Light Rain
7:57 PM 50.0 °F - 48.2 °F 94% 29.66 in 10.0 mi West 27.6 mph 34.5 mph 0.00 in Rain Light Rain
8:16 PM 48.2 °F - 46.4 °F 93% 29.67 in 7.0 mi West 23.0 mph 31.1 mph 0.04 in Rain Rain
8:53 PM 46.9 °F - 45.0 °F 93% 29.67 in 9.0 mi WNW 18.4 mph 25.3 mph 0.13 in Rain Light Rain
9:21 PM 44.6 °F 36.9 °F 44.6 °F 100% 29.67 in 6.0 mi West 18.4 mph 28.8 mph 0.08 in Rain Rain
9:45 PM 44.6 °F 36.4 °F 42.8 °F 93% 29.69 in 7.0 mi West 20.7 mph 27.6 mph 0.12 in Rain Rain
9:53 PM 45.0 °F 37.1 °F 43.0 °F 93% 29.68 in 7.0 mi West 19.6 mph 26.5 mph 0.14 in Rain Rain
10:25 PM 44.6 °F 38.1 °F 42.8 °F 93% 29.67 in 6.0 mi West 13.8 mph - 0.11 in Rain Rain
10:53 PM 44.1 °F 35.4 °F 42.1 °F 93% 29.64 in 8.0 mi WNW 21.9 mph 27.6 mph 0.19 in Rain Light Rain
11:22 PM 44.6 °F 37.8 °F 39.2 °F 81% 29.66 in 10.0 mi West 15.0 mph 21.9 mph 0.01 in Rain Light Rain
11:53 PM 43.0 °F 34.8 °F 39.0 °F 86% 29.66 in 10.0 mi West 18.4 mph 31.1 mph 0.02 in   Overcast